Location: Krakow
(50.0830°N, 19.9170°E)
Time: 12:13:40
(UTC+02:00)

A-11 Canister half - Pass Details

Date: 23 March 2026
Orbit: 1523 x 1684 km, 47.3° (Epoch: 16 April)

Event Time Altitude Azimuth Distance (km) Brightness Sun altitude
Rises 08:09:32 0° 241° (WSW) 4,911 11.3 22.8°
Reaches altitude 10° 08:12:44 10° 239° (WSW) 3,910 10.9 23.3°
Maximum altitude 08:22:34 65° 160° (SSE) 1,765 10.1 24.7°
Drops below altitude 10° 08:32:06 10° 82° (E) 3,796 11.9 26.0°
Sets 08:35:10 0° 80° (E) 4,761 12.2 26.4°
